Winnipeg, Manitoba

9:57 PM CDT on March 26, 2017 (GMT -0500)
Winnipeg International Airport

Weather History for CYWG - June, 2014

Change the Weather History Date:

Saturday, June 7, 2014

  Actual Average Record
Temperature  
Mean Temperature 54 °F -  
Max Temperature 66 °F 75 °F 86 °F (2012)
Min Temperature 42 °F 52 °F 39 °F (2016)
Degree Days  
Heating Degree Days 11    
Growing Degree Days 4 (Base 50)    
Moisture  
Dew Point 34 °F    
Average Humidity 47    
Maximum Humidity 76    
Minimum Humidity 26    
Precipitation  
Precipitation 0.00 in 0.11 in - ()
Sea Level Pressure  
Sea Level Pressure 30.07 in    
Wind  
Wind Speed 7 mph ()    
Max Wind Speed 23 mph    
Max Gust Speed 33 mph    
Visibility 15.0 miles    
Events      
Averages and records for this station are not official NWS values.
T = Trace of Precipitation, MM = Missing Value Source: Averaged Metar Reports

Daily Weather History Graph

Daily Weather History Graph

Search for Another Location

Airport or City:

Trip Planner

Search our weather history database for the weather conditions in past years. The results will help you decide how hot, cold, wet, or windy it might be!

Date:

Astronomy

Jun. 07, 2014 Rise Set
Actual Time 5:21 AM CDT 9:34 PM CDT
Civil Twilight 4:38 AM CDT 10:18 PM CDT
Nautical Twilight 3:35 AM CDT 11:20 PM CDT
Astronomical Twilight 2:00 AM CDT 12:55 AM CDT
Moon 3:22 PM CDT (6/7) 2:17 AM CDT (6/7)
Length of Visible Light 17h 39m
Length of Day
16h 12m
Waxing Gibbous, 68% of the Moon is Illuminated
Jun 7
Waxing Gibbous
Jun 12
Full
Jun 19
Last Quarter
Jun 27
New
Jul 5
First Quarter

Hourly Weather History & Observations

Time (CDT) Temp. Windchill Dew Point Humidity Pressure Visibility Wind Dir Wind Speed Gust Speed Precip Events Conditions
12:00 AM 51.8 °F - 35.6 °F 54% 30.07 in 15.0 mi West 5.8 mph - N/A   Clear
1:00 AM 50.0 °F - 35.6 °F 58% 30.07 in 15.0 mi West 5.8 mph - N/A   Clear
2:00 AM 48.2 °F - 37.4 °F 66% 30.06 in 15.0 mi SSW 2.3 mph - N/A   Clear
3:00 AM 44.6 °F 42.2 °F 37.4 °F 76% 30.06 in 15.0 mi WSW 4.6 mph - N/A   Clear
4:00 AM 42.8 °F 38.6 °F 35.6 °F 76% 30.08 in 15.0 mi SW 6.9 mph - N/A   Clear
5:00 AM 42.8 °F 37.5 °F 35.6 °F 76% 30.09 in 15.0 mi SW 9.2 mph - N/A   Partly Cloudy
6:00 AM 42.8 °F - 35.6 °F 76% 30.09 in 15.0 mi Calm Calm - N/A   Partly Cloudy
7:00 AM 48.2 °F - 35.6 °F 62% 30.10 in 15.0 mi SW 3.5 mph - N/A   Scattered Clouds
8:00 AM 51.8 °F - 37.4 °F 58% 30.09 in 15.0 mi West 5.8 mph - N/A   Partly Cloudy
9:00 AM 57.2 °F - 35.6 °F 44% 30.09 in 15.0 mi West 5.8 mph - N/A   Partly Cloudy
10:00 AM 60.8 °F - 37.4 °F 42% 30.08 in 15.0 mi WSW 11.5 mph - N/A   Partly Cloudy
11:00 AM 62.6 °F - 35.6 °F 37% 30.07 in 15.0 mi West 13.8 mph 24.2 mph N/A   Partly Cloudy
1:00 PM 64.4 °F - 32.0 °F 30% 30.06 in 15.0 mi WNW 20.7 mph 33.4 mph N/A   Scattered Clouds
2:00 PM 62.6 °F - 33.8 °F 34% 30.06 in 15.0 mi WNW 11.5 mph - N/A   Mostly Cloudy
3:00 PM 64.4 °F - 32.0 °F 30% 30.06 in 15.0 mi West 15.0 mph 26.5 mph N/A   Scattered Clouds
4:00 PM 66.2 °F - 32.0 °F 28% 30.06 in 15.0 mi NNW 23.0 mph 29.9 mph N/A   Scattered Clouds
5:00 PM 66.2 °F - 30.2 °F 26% 30.06 in 15.0 mi NW 20.7 mph - N/A   Partly Cloudy
6:00 PM 66.2 °F - 30.2 °F 26% 30.06 in 15.0 mi NW 15.0 mph 21.9 mph N/A   Partly Cloudy
7:00 PM 64.4 °F - 30.2 °F 28% 30.06 in 15.0 mi NNW 13.8 mph - N/A   Partly Cloudy
8:00 PM 62.6 °F - 32.0 °F 32% 30.06 in 15.0 mi WNW 6.9 mph - N/A   Partly Cloudy
9:00 PM 59.0 °F - 32.0 °F 36% 30.06 in 15.0 mi NW 4.6 mph - N/A   Partly Cloudy
10:00 PM 57.2 °F - 33.8 °F 41% 30.07 in 15.0 mi Calm Calm - N/A   Partly Cloudy
11:00 PM 53.6 °F - 33.8 °F 47% 30.06 in 15.0 mi South 3.5 mph - N/A   Partly Cloudy